• In Uzbekistan
  • List of Countries
  • For 7 days
  • Water Temperature
  • Satellite Maps
  • Weather Map
  • Weather Widgets
  • user-avatar
    Login

    Hourly Weather Bamenda

    Today, 24 November, Friday

    Time Temperature Precipitation Wind Pressure Humidity
    00:00 +18°C° 0 mm 1 mps 641 mmHg 83%
    01:00 +18°C° 0 mm 1 mps 641 mmHg 89%
    02:00 +18°C° 0 mm 1 mps 641 mmHg 88%
    03:00 +16°C° 0 mm 1 mps 640 mmHg 88%
    04:00 +16°C° 0 mm 1 mps 640 mmHg 88%
    05:00 +18°C° 0 mm 1 mps 641 mmHg 85%
    06:00 +18°C° 0 mm 1 mps 641 mmHg 82%
    07:00 +19°C° 0 mm 1 mps 641 mmHg 78%
    08:00 +21°C° 0 mm 1 mps 642 mmHg 67%
    09:00 +23°C° 0 mm 1 mps 643 mmHg 56%
    10:00 +25°C° 0 mm 1 mps 644 mmHg 44%
    11:00 +27°C° 0 mm 1 mps 644 mmHg 42%
    12:00 +28°C° 0 mm 1 mps 644 mmHg 39%
    13:00 +29°C° 0 mm 1 mps 644 mmHg 36%
    14:00 +28°C° 0 mm 1 mps 643 mmHg 39%
    15:00 +28°C° 0 mm 1 mps 642 mmHg 41%
    16:00 +27°C° 0 mm 1 mps 641 mmHg 44%
    17:00 +25°C° 0 mm 1 mps 641 mmHg 51%
    18:00 +23°C° 0 mm 1 mps 641 mmHg 58%
    19:00 +21°C° 0 mm 1 mps 640 mmHg 65%
    20:00 +20°C° 0 mm 1 mps 641 mmHg 67%
    21:00 +19°C° 0 mm 1 mps 641 mmHg 69%
    22:00 +19°C° 0 mm 1 mps 641 mmHg 72%
    23:00 +18°C° 0 mm 1 mps 641 mmHg 71%

    Tomorrow, 25 November, Saturday

    Time Temperature Precipitation Wind Pressure Humidity
    00:00 +18°C° 0 mm 1 mps 641 mmHg 71%
    01:00 +18°C° 0 mm 1 mps 641 mmHg 70%
    02:00 +16°C° 0 mm 1 mps 641 mmHg 66%
    03:00 +16°C° 0 mm 1 mps 640 mmHg 62%
    04:00 +16°C° 0 mm 1 mps 640 mmHg 58%
    05:00 +16°C° 0 mm 1 mps 640 mmHg 54%
    06:00 +16°C° 0 mm 1 mps 641 mmHg 51%
    07:00 +16°C° 0 mm 1 mps 641 mmHg 47%
    08:00 +20°C° 0 mm 1 mps 642 mmHg 41%
    09:00 +23°C° 0 mm 1 mps 643 mmHg 34%
    10:00 +26°C° 0 mm 1 mps 645 mmHg 28%
    11:00 +27°C° 0 mm 1 mps 644 mmHg 27%
    12:00 +29°C° 0 mm 1 mps 644 mmHg 26%
    13:00 +30°C° 0 mm 1 mps 644 mmHg 25%
    14:00 +29°C° 0 mm 1 mps 643 mmHg 27%
    15:00 +28°C° 0 mm 1 mps 642 mmHg 29%
    16:00 +27°C° 0 mm 1 mps 641 mmHg 31%
    17:00 +25°C° 0 mm 1 mps 641 mmHg 37%
    18:00 +22°C° 0 mm 1 mps 641 mmHg 44%
    19:00 +20°C° 0 mm 1 mps 640 mmHg 50%
    20:00 +19°C° 0 mm 1 mps 641 mmHg 51%
    21:00 +19°C° 0 mm 1 mps 641 mmHg 52%
    22:00 +18°C° 0 mm 1 mps 642 mmHg 53%
    23:00 +18°C° 0 mm 1 mps 642 mmHg 52%

    Day after tomorrow, 26 November, Sunday

    Time Temperature Precipitation Wind Pressure Humidity
    00:00 +18°C° 0 mm 1 mps 641 mmHg 51%
    01:00 +16°C° 0 mm 1 mps 641 mmHg 49%
    02:00 +16°C° 0 mm 1 mps 641 mmHg 47%
    03:00 +16°C° 0 mm 1 mps 640 mmHg 44%
    04:00 +16°C° 0 mm 1 mps 640 mmHg 42%
    05:00 +16°C° 0 mm 1 mps 641 mmHg 42%
    06:00 +16°C° 0 mm 1 mps 641 mmHg 42%
    07:00 +16°C° 0 mm 1 mps 641 mmHg 42%
    08:00 +20°C° 0 mm 1 mps 643 mmHg 37%
    09:00 +23°C° 0 mm 2 mps 644 mmHg 32%
    10:00 +26°C° 0 mm 2 mps 645 mmHg 26%
    11:00 +27°C° 0 mm 2 mps 645 mmHg 25%
    12:00 +28°C° 0 mm 2 mps 644 mmHg 24%
    13:00 +29°C° 0 mm 2 mps 644 mmHg 23%
    14:00 +29°C° 0 mm 2 mps 643 mmHg 25%
    15:00 +28°C° 0 mm 2 mps 643 mmHg 27%
    16:00 +28°C° 0 mm 2 mps 642 mmHg 28%
    17:00 +25°C° 0 mm 1 mps 642 mmHg 34%
    18:00 +23°C° 0 mm 1 mps 641 mmHg 41%
    19:00 +20°C° 0 mm 1 mps 641 mmHg 47%
    20:00 +20°C° 0 mm 1 mps 641 mmHg 48%
    21:00 +19°C° 0 mm 1 mps 642 mmHg 49%
    22:00 +19°C° 0 mm 1 mps 642 mmHg 50%
    23:00 +19°C° 0 mm 1 mps 642 mmHg 50%

    27 November, Monday

    Time Temperature Precipitation Wind Pressure Humidity
    00:00 +18°C° 0 mm 1 mps 642 mmHg 50%
    01:00 +18°C° 0 mm 1 mps 641 mmHg 50%
    02:00 +18°C° 0 mm 1 mps 641 mmHg 48%
    03:00 +16°C° 0 mm 1 mps 641 mmHg 45%
    04:00 +16°C° 0 mm 1 mps 640 mmHg 42%
    05:00 +16°C° 0 mm 1 mps 641 mmHg 42%
    06:00 +16°C° 0 mm 1 mps 641 mmHg 41%
    07:00 +16°C° 0 mm 1 mps 642 mmHg 40%
    08:00 +20°C° 0 mm 1 mps 643 mmHg 36%
    09:00 +23°C° 0 mm 1 mps 644 mmHg 31%
    10:00 +27°C° 0 mm 1 mps 645 mmHg 26%
    11:00 +27°C° 0 mm 1 mps 645 mmHg 25%
    12:00 +28°C° 0 mm 1 mps 644 mmHg 24%
    13:00 +29°C° 0 mm 2 mps 644 mmHg 23%
    14:00 +28°C° 0 mm 2 mps 643 mmHg 24%
    15:00 +28°C° 0 mm 2 mps 643 mmHg 26%
    16:00 +27°C° 0 mm 2 mps 642 mmHg 27%
    17:00 +25°C° 0 mm 1 mps 642 mmHg 34%
    18:00 +22°C° 0 mm 1 mps 641 mmHg 41%
    19:00 +18°C° 0 mm 0 mps 641 mmHg 48%
    20:00 +17°C° 0 mm 0 mps 641 mmHg 49%
    21:00 +19°C° 0 mm 1 mps 641 mmHg 50%
    22:00 +18°C° 0 mm 1 mps 642 mmHg 52%
    23:00 +18°C° 0 mm 1 mps 641 mmHg 52%

    28 November, Tuesday

    Time Temperature Precipitation Wind Pressure Humidity
    00:00 +18°C° 0 mm 1 mps 641 mmHg 52%
    01:00 +16°C° 0 mm 1 mps 641 mmHg 52%
    02:00 +16°C° 0 mm 1 mps 640 mmHg 50%
    03:00 +16°C° 0 mm 1 mps 640 mmHg 47%
    04:00 +16°C° 0 mm 1 mps 640 mmHg 45%
    05:00 +16°C° 0 mm 1 mps 641 mmHg 43%
    06:00 +16°C° 0 mm 1 mps 641 mmHg 42%
    07:00 +16°C° 0 mm 1 mps 642 mmHg 40%
    08:00 +20°C° 0 mm 1 mps 643 mmHg 35%
    09:00 +23°C° 0 mm 1 mps 644 mmHg 30%
    10:00 +26°C° 0 mm 1 mps 645 mmHg 25%
    11:00 +27°C° 0 mm 1 mps 644 mmHg 25%
    12:00 +28°C° 0 mm 1 mps 644 mmHg 24%
    13:00 +29°C° 0 mm 1 mps 644 mmHg 23%
    14:00 +29°C° 0 mm 1 mps 643 mmHg 25%
    15:00 +28°C° 0 mm 1 mps 642 mmHg 26%
    16:00 +27°C° 0 mm 2 mps 642 mmHg 28%
    17:00 +25°C° 0 mm 1 mps 641 mmHg 35%
    18:00 +22°C° 0 mm 1 mps 641 mmHg 42%
    19:00 +20°C° 0 mm 1 mps 640 mmHg 49%
    20:00 +19°C° 0 mm 1 mps 641 mmHg 51%
    21:00 +19°C° 0 mm 1 mps 641 mmHg 53%
    22:00 +18°C° 0 mm 1 mps 641 mmHg 54%
    23:00 +18°C° 0 mm 1 mps 641 mmHg 54%

    29 November, Wednesday

    Time Temperature Precipitation Wind Pressure Humidity
    00:00 +18°C° 0 mm 1 mps 641 mmHg 54%
    01:00 +16°C° 0 mm 1 mps 640 mmHg 53%
    02:00 +16°C° 0 mm 1 mps 640 mmHg 50%
    03:00 +16°C° 0 mm 1 mps 640 mmHg 48%
    04:00 +16°C° 0 mm 1 mps 640 mmHg 45%
    05:00 +16°C° 0 mm 1 mps 640 mmHg 44%
    06:00 +16°C° 0 mm 1 mps 641 mmHg 44%
    07:00 +16°C° 0 mm 1 mps 641 mmHg 43%
    08:00 +20°C° 0 mm 1 mps 642 mmHg 37%
    09:00 +23°C° 0 mm 2 mps 644 mmHg 31%
    10:00 +26°C° 0 mm 2 mps 645 mmHg 25%
    11:00 +27°C° 0 mm 2 mps 644 mmHg 24%
    12:00 +28°C° 0 mm 2 mps 644 mmHg 23%
    13:00 +29°C° 0 mm 2 mps 643 mmHg 23%
    14:00 +29°C° 0 mm 2 mps 643 mmHg 24%
    15:00 +28°C° 0 mm 2 mps 642 mmHg 25%
    16:00 +28°C° 0 mm 2 mps 641 mmHg 26%
    17:00 +26°C° 0 mm 1 mps 641 mmHg 32%
    18:00 +23°C° 0 mm 1 mps 641 mmHg 38%
    19:00 +20°C° 0 mm 1 mps 640 mmHg 44%
    20:00 +20°C° 0 mm 1 mps 641 mmHg 46%
    21:00 +19°C° 0 mm 1 mps 641 mmHg 47%
    22:00 +19°C° 0 mm 1 mps 641 mmHg 48%
    23:00 +18°C° 0 mm 1 mps 641 mmHg 48%
    Show more